AJ1L Weather Reports


time (UTC)temp
C
wind
direction
speed
KPH
gust
KPH
rain 1hr
cm
rain 24hr
cm
rain mn
cm
humidity
%
barometer
mb
20260507212400 17 330 8.0 19.3 0.00 0.81 0.71 30 1004.7
20260507205039 17 334 8.0 25.7 0.00 0.81 0.71 29 1004.6
20260507203359 17 328 6.4 12.9 0.00 0.81 0.71 30 1004.5
20260507201720 18 310 8.0 20.9 0.00 0.81 0.71 28 1004.6
20260507200040 17 305 8.0 17.7 0.00 0.84 0.71 28 1004.6
20260507194359 17 293 9.7 20.9 0.00 0.86 0.71 32 1004.8
20260507191044 17 313 9.7 19.3 0.00 0.86 0.71 34 1005.0
20260507185359 18 281 8.0 17.7 0.00 0.86 0.71 36 1005.3
20260507183720 17 280 9.7 22.5 0.00 0.86 0.71 36 1005.5
20260507182039 17 275 6.4 17.7 0.00 0.86 0.71 37 1005.6
20260507180359 17 288 6.4 19.3 0.00 0.86 0.71 38 1005.7
20260507173039 17 276 8.0 22.5 0.00 0.86 0.71 44 1005.7
20260507171359 16 274 9.7 22.5 0.00 0.86 0.71 47 1006.0
20260507165721 16 256 4.8 12.9 0.00 0.86 0.71 51 1006.1
20260507164039 16 255 8.0 14.5 0.00 0.86 0.71 53 1006.3
20260507162359 15 261 6.4 19.3 0.00 0.86 0.71 56 1006.5
20260507160719 15 286 4.8 14.5 0.00 0.86 0.71 56 1006.7
20260507153406 15 278 4.8 11.3 0.00 0.86 0.71 57 1007.1
20260507151719 15 266 4.8 14.5 0.00 0.86 0.71 56 1007.2
20260507144359 13 306 3.2 14.5 0.00 0.86 0.71 67 1007.4
20260507141039 13 291 6.4 17.7 0.00 0.86 0.71 70 1007.6
20260507135400 12 306 8.0 19.3 0.00 0.86 0.71 79 1007.5
20260507132039 10 300 6.4 19.3 0.00 0.86 0.71 91 1007.7
20260507130359 10 270 3.2 11.3 0.00 0.86 0.71 93 1007.8
20260507124719 10 281 3.2 6.4 0.00 0.86 0.71 94 1007.8
20260507123046 9 260 3.2 4.8 0.03 0.86 0.71 94 1008.1
20260507121359 9 267 1.6 4.8 0.05 0.86 0.71 94 1007.7
20260507114039 8 215 1.6 4.8 0.05 0.84 0.69 93 1007.6
20260507105040 8 314 3.2 12.9 0.08 0.79 0.64 93 1007.2
20260507103404 8 299 4.8 11.3 0.08 0.79 0.64 93 1007.5
20260507101722 9 284 4.8 12.9 0.08 0.76 0.61 93 1007.8
20260507100039 9 288 1.6 4.8 0.05 0.74 0.58 94 1007.2
20260507094358 10 287 3.2 6.4 0.05 0.71 0.56 94 1007.0
20260507091038 10 279 3.2 9.7 0.20 0.69 0.53 93 1006.9
20260507085358 10 298 4.8 14.5 0.30 0.69 0.53 93 1006.7
20260507083718 11 297 3.2 11.3 0.51 0.66 0.51 93 1006.5
20260507082039 11 291 4.8 12.9 0.43 0.58 0.43 93 1006.7
20260507080358 12 273 3.2 16.1 0.28 0.43 0.28 92 1006.7
20260507074720 12 289 6.4 12.9 0.18 0.33 0.18 90 1006.5
20260507073039 12 295 3.2 11.3 0.00 0.15 0.00 91 1005.5
20260507071400 12 300 3.2 11.3 0.00 0.15 0.00 94 1005.5
20260507065721 13 272 1.6 11.3 0.00 0.15 0.00 95 1005.8
20260507064038 13 289 1.6 6.4 0.00 0.15 0.00 95 1005.6
20260507062358 13 240 0.0 1.6 0.00 0.15 0.00 95 1005.6
20260507060719 13 258 3.2 8.0 0.00 0.15 0.00 95 1005.9
20260507055039 13 272 1.6 4.8 0.00 0.15 0.00 95 1006.0
20260507053359 13 281 1.6 6.4 0.00 0.15 0.00 95 1006.3
20260507051720 13 247 1.6 4.8 0.00 0.15 0.00 95 1006.2
20260507050039 13 242 1.6 6.4 0.00 0.15 0.00 95 1006.3
20260507044358 13 248 1.6 4.8 0.00 0.15 0.00 95 1006.4
20260507041038 13 262 1.6 4.8 0.00 0.15 0.00 95 1006.3
20260507035359 13 242 3.2 8.0 0.00 0.15 0.15 95 1006.4
20260507033718 13 251 4.8 12.9 0.00 0.15 0.15 95 1006.7
20260507032038 12 242 4.8 9.7 0.00 0.15 0.15 95 1006.4
20260507030359 12 239 6.4 12.9 0.00 0.15 0.15 95 1006.2
20260507024718 12 244 4.8 12.9 0.00 0.15 0.15 95 1006.2
20260507021358 12 211 4.8 11.3 0.00 0.15 0.15 94 1006.1
20260507015718 13 223 3.2 11.3 0.00 0.15 0.15 94 1006.6
20260507014038 13 230 4.8 12.9 0.00 0.15 0.15 94 1006.7
20260507012358 13 225 4.8 14.5 0.00 0.15 0.15 94 1006.8
20260507010718 13 241 6.4 14.5 0.00 0.15 0.15 94 1006.9
20260507005041 13 247 4.8 14.5 0.03 0.15 0.15 94 1006.9
20260507003359 13 243 6.4 17.7 0.05 0.15 0.15 94 1006.9
20260507001718 13 225 6.4 16.1 0.05 0.15 0.15 94 1006.7
20260507000038 13 235 6.4 19.3 0.03 0.13 0.13 94 1006.6
20260506231038 13 234 4.8 19.3 0.05 0.10 0.10 93 1007.0
20260506225358 13 209 4.8 12.9 0.05 0.10 0.10 92 1006.7
20260506223720 13 214 4.8 14.5 0.05 0.10 0.10 92 1006.8
20260506222041 13 209 4.8 14.5 0.03 0.08 0.08 91 1007.2
20260506214720 14 232 6.4 19.3 0.00 0.05 0.05 90 1007.4